TimeEDT,TemperatureF,Dew PointF,Humidity,Sea Level PressureIn,VisibilityMPH,Wind Direction,Wind SpeedMPH,Gust SpeedMPH,PrecipitationIn,Events,Conditions,WindDirDegrees,DateUTC
12:52 AM,54.0,46.0,75,30.17,10.0,Calm,Calm,-,N/A,,Clear,0,2013-06-05 04:52:00
1:52 AM,54.0,46.0,75,30.15,10.0,Calm,Calm,-,N/A,,Clear,0,2013-06-05 05:52:00
2:52 AM,53.1,46.9,80,30.15,10.0,Calm,Calm,-,N/A,,Clear,0,2013-06-05 06:52:00
3:52 AM,53.1,46.9,80,30.13,10.0,Calm,Calm,-,N/A,,Clear,0,2013-06-05 07:52:00
4:52 AM,51.1,46.0,83,30.14,10.0,North,3.5,-,N/A,,Clear,10,2013-06-05 08:52:00
5:52 AM,48.9,46.0,90,30.14,10.0,Calm,Calm,-,N/A,,Clear,0,2013-06-05 09:52:00
6:52 AM,51.1,45.0,80,30.14,10.0,East,3.5,-,N/A,,Clear,90,2013-06-05 10:52:00
7:52 AM,55.9,46.0,69,30.15,10.0,NE,4.6,-,N/A,,Clear,50,2013-06-05 11:52:00
8:52 AM,59.0,48.0,67,30.15,10.0,ENE,4.6,-,N/A,,Clear,60,2013-06-05 12:52:00
9:52 AM,64.9,45.0,48,30.14,10.0,East,9.2,-,N/A,,Clear,80,2013-06-05 13:52:00
10:52 AM,66.9,46.0,47,30.11,10.0,East,10.4,-,N/A,,Clear,80,2013-06-05 14:52:00
11:52 AM,69.1,46.0,44,30.09,10.0,East,9.2,-,N/A,,Clear,80,2013-06-05 15:52:00
12:52 PM,70.0,46.0,42,30.08,10.0,NE,10.4,-,N/A,,Clear,50,2013-06-05 16:52:00
1:52 PM,71.1,46.9,42,30.07,10.0,ENE,9.2,18.4,N/A,,Clear,60,2013-06-05 17:52:00
2:52 PM,71.1,42.1,35,30.06,10.0,ENE,10.4,-,N/A,,Clear,70,2013-06-05 18:52:00
3:52 PM,72.0,39.0,30,30.03,10.0,ENE,12.7,-,N/A,,Clear,70,2013-06-05 19:52:00
4:52 PM,72.0,37.0,28,30.02,10.0,East,9.2,-,N/A,,Clear,80,2013-06-05 20:52:00
5:52 PM,70.0,36.0,29,30.01,10.0,ENE,13.8,17.3,N/A,,Clear,70,2013-06-05 21:52:00
6:52 PM,66.9,37.9,34,30.00,10.0,ENE,10.4,-,N/A,,Clear,60,2013-06-05 22:52:00
7:52 PM,64.9,43.0,45,29.99,10.0,ENE,11.5,-,N/A,,Clear,60,2013-06-05 23:52:00
8:52 PM,62.1,42.1,48,29.99,10.0,ENE,10.4,-,N/A,,Clear,60,2013-06-06 00:52:00
9:52 PM,60.1,42.1,51,29.98,10.0,East,10.4,19.6,N/A,,Clear,80,2013-06-06 01:52:00
10:52 PM,60.1,44.1,55,29.97,10.0,East,11.5,-,N/A,,Clear,90,2013-06-06 02:52:00
11:52 PM,60.1,46.0,60,29.97,10.0,ENE,8.1,-,N/A,,Clear,70,2013-06-06 03:52:00